Location: Saint Mary
(48.7436°N, 113.4291°W)
Time: 02:25:13
(UTC+00:00)

BlueWalker 3 - Pass Details

Date: 21 December 2025
Orbit: 451 x 463 km, 53.2° (Epoch: 19 January)

Event Time Altitude Azimuth Distance (km) Brightness Sun altitude
Rises 13:23:07 0° 198° (SSW) 2,450 5.4 -18.8°
Reaches altitude 10° 13:25:42 10° 179° (S) 1,584 4.6 -18.4°
Maximum altitude 13:28:12 18° 135° (SE) 1,181 4.6 -18.0°
Drops below altitude 10° 13:30:42 10° 90° (E) 1,598 5.7 -17.6°
Sets 13:33:19 0° 71° (ENE) 2,479 6.4 -17.2°
